Date,TemperatureHighF,TemperatureAvgF,TemperatureLowF,DewpointHighF,DewpointAvgF,DewpointLowF,HumidityHigh,HumidityAvg,HumidityLow,PressureMaxIn,PressureMinIn,WindSpeedMaxMPH,WindSpeedAvgMPH,GustSpeedMaxMPH,PrecipitationSumIn
2013-6-1,62,48,34,42,37,30,85,66,43,30.17,29.97,16,1,16,0.00
2013-6-2,68,53,39,46,40,34,90,64,35,29.97,29.53,13,1,13,0.08
2013-6-3,60,48,35,44,34,26,92,62,32,29.92,29.53,21,4,21,0.02
2013-6-4,45,39,35,36,34,31,90,83,71,30.26,29.92,15,2,15,0.03
2013-6-5,63,47,30,41,34,27,90,64,39,30.25,29.99,11,1,0,0.01
2013-6-6,68,56,41,47,40,33,76,57,37,30.00,29.88,15,1,16,0.00
2013-6-7,72,60,46,51,44,36,76,55,36,29.89,29.54,26,1,26,0.03
2013-6-8,68,58,42,46,37,30,79,47,27,29.78,29.58,25,3,25,0.01
2013-6-9,81,61,41,45,39,34,78,48,20,29.83,29.55,20,1,23,0.00
2013-6-10,69,56,39,51,42,34,90,63,37,29.73,29.58,19,1,19,0.11
2013-6-11,69,56,48,56,48,42,90,73,49,29.72,29.58,17,1,17,0.03
2013-6-12,68,58,46,53,46,39,92,68,39,29.95,29.83,14,1,14,0.09
2013-6-13,74,58,44,55,45,33,89,65,33,29.89,29.58,31,2,31,0.23
2013-6-14,59,50,35,39,30,20,82,48,28,29.98,29.67,21,4,21,0.00
2013-6-15,68,52,32,39,31,22,76,47,27,30.00,29.86,13,1,13,0.00
2013-6-16,67,54,39,50,39,27,84,58,39,30.02,29.91,11,0,0,0.01
2013-6-17,72,56,40,52,45,36,88,67,38,30.03,29.86,10,0,0,0.00
2013-6-18,80,64,49,55,41,34,80,47,24,29.87,29.54,12,1,12,0.01
2013-6-19,80,65,46,49,36,20,66,36,19,29.55,29.21,44,4,44,0.00
2013-6-20,67,51,33,37,26,17,79,41,21,29.90,29.40,25,2,25,0.00
2013-6-21,59,48,36,44,37,29,87,68,41,29.97,29.86,15,1,15,0.01
2013-6-22,56,46,35,47,39,32,91,79,54,29.97,29.82,13,1,13,0.08
2013-6-23,72,53,34,45,37,27,87,60,20,29.95,29.66,13,1,13,0.00
2013-6-24,77,61,47,49,39,32,73,47,22,29.66,29.44,23,2,23,0.01
2013-6-25,72,62,53,43,39,35,64,43,29,29.68,29.48,16,3,16,0.00
2013-6-26,76,63,47,49,44,39,84,53,29,29.92,29.65,14,1,14,0.00
2013-6-27,78,63,45,53,47,41,87,59,34,30.05,29.92,9,1,0,0.00
2013-6-28,79,65,51,55,48,44,79,58,35,30.06,29.98,9,1,0,0.00
2013-6-29,81,64,46,55,49,41,86,61,38,30.01,29.89,8,1,0,0.00
2013-6-30,79,71,55,60,53,48,82,56,37,29.97,29.89,11,1,0,0.00